Regional Weather Roundup
Issued by NWS Albany, NY

Home | Current Version | Previous Version | Graphics & Text | Print | Product List | Glossary On
Versions: 1 2 3 4 5 6 7 8 9 10 11 12 13 14 15 16 17 18 19 20 21 22 23 24 25 26 27 28 29 30 31 32 33 34 35 36 37 38 39 40 41 42 43 44 45 46 47 48 49 50
000
ASUS41 KALY 202210
RWRALY

NEW YORK STATE HOURLY WEATHER ROUNDUP
NATIONAL WEATHER SERVICE ALBANY NY
600 PM EDT WED AUG 20 2014

NOTE: "FAIR" INDICATES FEW OR NO CLOUDS BELOW 12,000 FEET WITH NO
SIGNIFICANT WEATHER AND/OR NO OBSTRUCTIONS TO VISIBILITY.

NYZ032-033-038>043-046>054-057>066-NYZ062>081-202300-
EAST


CITY           SKY/WX    TMP DP  RH WIND       PRES   REMARKS
ALBANY         PTSUNNY   81  65  58 S10       29.95S
GLENS FALLS    SUNNY     82  64  54 S6        29.95S
POUGHKEEPSIE   MOSUNNY   82  65  56 SE8       29.95S
NEWBURGH       MOSUNNY   82  66  57 S12       29.99R
MONTGOMERY     MOSUNNY   83  63  50 S8        29.96R
WHITE PLAINS   SUNNY     77  63  61 SE9       30.00R
ISLIP          MOSUNNY   75  57  53 S6        30.00R
NEW YORK CITY  MOSUNNY   80  53  39 S12       29.99R
CENTRAL PARK   SUNNY     78  55  44 VRB7      30.02S
$$

NYZ005>009-017-018-044>046-055-056-202300-
CENTRAL


CITY           SKY/WX    TMP DP  RH WIND       PRES   REMARKS
FULTON         LGT RAIN  70  66  87 SW5       29.96R FOG
SYRACUSE       LGT RAIN  73  69  87 W5        29.96R FOG
ROME           CLOUDY    75  69  81 W10       29.96R
ELMIRA         CLOUDY    76  72  87 NE3       29.96R
BINGHAMTON     CLOUDY    70  67  90 S6        30.00S FOG
MONTICELLO     SUNNY     75  64  69 S5        30.02S
$$

NYZ026>034-041>043-202300-
NORTH


CITY           SKY/WX    TMP DP  RH WIND       PRES   REMARKS
WATERTOWN      RAIN      69  63  81 S5        29.98R
FORT DRUM      NOT AVBL
MASSENA        PTSUNNY   76  65  68 NE8       29.94S
SARANAC LAKE   MOSUNNY   76  62  62 E9        29.98S
PLATTSBURGH    SUNNY     79  63  57 E6        29.96R
$$

NYZ001>004-010>016-019>021-202300-
WEST


CITY           SKY/WX    TMP DP  RH WIND       PRES   REMARKS
NIAGARA FALLS  PTSUNNY   77  64  64 S9        29.90F
BUFFALO        PTSUNNY   77  64  64 VRB3      29.91F
DUNKIRK        PTSUNNY   76  65  68 CALM      29.92R
JAMESTOWN      PTSUNNY   72  64  78 S5        29.97S
WELLSVILLE     CLOUDY    73  62  68 S7        30.01S
ROCHESTER      CLOUDY    76  66  71 SE10      29.93F
PENN YAN       RAIN      69  67  93 N3        29.98F VSB 1
$$

             KEY
       WCI = WIND CHILL INDEX
       VSB = VISIBILITY
       HX  = HEAT INDEX
$$


USA.gov is the U.S. government's official web portal to all federal, state and local government web resources and services.